SCP
0 0 0 0 0 0 0 0 0 0 0 0 0 0 0 0 0 0 0 0 0 0 0 0 0 0 0 0 0 0 0 0 0 0 0 0 0 0 0 0 0 0 0
0 0 0 0 0 0 0 0 0 0 0 0 0 0 0 0 0 0 0 0 0 0 0 0 0 0 0 0 0 0 0 0 0 0 0 0 0 0 0 0 0 0 0
0 0 0 0 0 0 0 0 0 0 0 0 0 0 0 0 0 0 0 0 0 0 0 0 0 0 0 0 0 0 0 0 0 0 0 0 0 0 0 0 0 0 0
0 0 0 0 0 0 0 0 0 0 0 0 0 0 0 0 0 0 0 0 0 0 0 0 0 0 0 0 0 0 0 0 0 0 0 0 0 0 0 0 0 0 0
0 0 0 0 0 0 0 0 0 0 0 0 0 0 0 0 0 0 0 0 0 0 0 0 0 0 0 0 0 0 0 0 0 0 0 0 0 0 0 0 0 0 0
0 0 0 0 0 0 0 0 0 0 0 0 0 0 0 0 0 0 0 0 0 0 0 0 0 0 0 0 0 0 0 0 0 0 0 0 0 0 0 0 0 0 0
0 0 0 0 0 0 0 0 0 0 0 0 0 0 0 0 0 0 0 0 0 0 0 0 0 0 0 0 0 0 0 0 0 0 0 0 0 0 0 0 0 0 0
0 0 0 0 0 0 0 0 0 0 0 0 0 0 0 0 0 0 0 0 0 0 0 0 0 0 0 0 0 0 0 0 0 0 0 0 0 0 0 0 0 0 0
0 0 0 0 0 0 0 0 0 0 0 0 0 0 0 0 0 0 0 0 0 0 0 0 0 0 0 0 0 0 0 0 0 0 0 0 0 0 0 0 0 0 0
0 0 0 0 0 0 0 0 0 0 0 0 0 0 0 0 0 0 0 0 0 0 0 0 0 0 0 0 0 0 0 0 0 0 0 0 0 0 0 0 0 0 0
0 0 0 0 0 0 0 0 0 0 0 0 0 0 0 0 0 0 0 0 0 0 0 0 0 0 0 0 0 0 0 0 0 0 0 0 0 0 0 0 0 0 0
0 0 0 0 0 0 0 0 0 0 0 0 0 0 0 0 0 0 0 0 0 0 0 0 0 0 0 0 0 0 0 0 0 0 0 0 0 0 0 0 0 0 0
0 0 0 0 0 0 0 0 0 0 0 0 0 0 0 0 0 0 0 0 0 0 0 0 0 0 0 0 0 0 0 0 0 0 0 0 0 0 0 0 0 0 0
0 0 0 0 0 0 0 0 0 0 0 0 0 0 0 0 0 0 0 0 0 0 0 0 0 0 0 0 0 0 0 0 0 0 0 0 0 0 0 0 0 0 0
0 0 0 0 0 0 0 0 0 0 0 0 0 0 0 0 0 0 0 0 0 0 0 0 0 0 0 0 0 0 0 0 0 0 0 0 0 0 0 0 0 0 0
0 0 0 0 0 0 0 0 0 0 0 0 0 0 0 0 0 0 0 0 0 0 0 0 0 0 0 0 0 0 0 0 0 0 0 0 0 0 0 0 0 0 0
0 0 0 0 0 0 0 0 0 0 0 0 0 0 0 0 0 0 0 0 0 0 0 0 0 0 0 0 0 0 0 0 0 0 0 0 0 0 0 0 0 0 0
0 0 0 0 0 0 0 0 0 0 0 0 0 0 0 0 0 0 0 0 0 0 0 0 0 0 0 0 0 0 0 0 0 0 0 0 0 0 0 0 0 0 0
0 0 0 0 0 0 0 0 0 0 0 0 0 0 0 0 0 0 0 0 0 0 0 0 0 0 0 0 0 0 0 0 0 0 0 0 0 0 0 0 0 0 0
0 0 0 0 0 0 0 0 0 0 0 0 0 0 0 0 0 0 0 0 0 0 0 0 0 0 0 0 0 0 0 0 0 0 0 0 0 0 0 0 0 0 0
0 0 0 0 0 0 0 0 0 0 0 0 0 0 0 0 0 0 0 0 0 0 0 0 0 0 0 0 0 0 0 0 0 0 0 0 0 0 0 0 0 0 0
0 0 0 0 0 0 0 0 0 0 0 0 0 0 0 0 0 0 0 0 0 0 0 0 0 0 0 0 0 0 0 0 0 0 0 0 0 0 0 0 0 0 0
0 0 0 0 0 0 0 0 0 0 0 0 0 0 0 0 0 0 0 0 0 0 0 0 0 0 0 0 0 0 0 0 0 0 0 0 0 0 0 0 0 0 0
0 0 0 0 0 0 0 0 0 0 0 0 0 0 0 0 0 0 0 0 0 0 0 0 0 0 0 0 0 0 0 0 0 0 0 0 0 0 0 0 0 0 0
0 0 0 0 0 0 0 0 0 0 0 0 0 0 0 0 0 0 0 0 0 0 0 0 0 0 0 0 0 0 0 0 0 0 0 0 0 0 0 0 0 0 0
0 0 0 0 0 0 0 0 0 0 0 0 0 0 0 0 0 0 0 0 0 0 0 0 0 0 0 0 0 0 0 0 0 0 0 0 0 0 0 0 0 0 0
Wind_Speed_500mb
87 94 103 111 114 112 118 117 112 118 118 116 106 96 92 86 84 83 81 83 88 83 81 80 79 76 74 73 72 73 76 74 82 76 73 66 61 61 57 67 68 67 63
87 91 102 105 110 112 114 111 106 114 116 116 106 99 91 83 82 82 79 82 82 80 76 73 69 62 66 65 69 71 71 74 72 73 69 59 53 55 54 65 63 70 74
88 83 96 103 103 107 108 105 105 110 108 111 105 96 84 84 82 83 81 78 78 75 70 67 62 60 62 64 65 67 69 68 68 75 57 55 58 58 56 56 61 68 74
93 79 88 98 102 101 102 100 102 108 104 109 103 90 84 82 80 80 80 75 74 71 63 64 64 63 64 66 63 59 60 59 60 54 53 55 57 61 58 57 59 59 69
88 75 85 90 93 91 94 96 98 105 103 107 96 88 84 83 81 79 75 71 70 67 66 63 62 60 73 58 51 53 55 53 57 53 62 62 58 59 68 66 59 62 61
80 77 75 81 82 89 91 91 93 99 97 98 90 85 83 84 78 75 71 67 64 62 57 66 56 64 53 58 56 60 58 56 51 51 54 61 65 57 61 61 59 54 59
73 72 68 77 80 85 87 87 88 93 92 89 75 68 68 69 67 66 64 60 57 59 63 61 61 53 56 55 53 54 55 51 50 54 60 59 60 60 44 45 43 48 50
70 66 61 71 77 81 81 76 85 88 85 77 73 65 60 60 60 60 64 61 53 60 64 54 47 51 54 49 52 54 55 53 47 45 52 45 42 42 41 41 38 44 48
57 55 53 57 70 69 70 72 78 83 75 75 70 67 71 68 64 58 66 66 62 54 46 52 52 50 47 40 37 36 37 38 36 38 38 37 38 38 40 39 36 38 43
46 37 46 51 41 50 63 80 79 73 71 71 72 65 64 62 59 52 49 52 55 49 48 39 33 32 30 30 31 32 32 30 29 30 32 33 32 31 33 30 29 28 31
28 26 32 41 42 57 61 73 78 76 78 71 65 61 56 47 52 55 51 46 44 41 37 37 32 31 26 26 26 25 25 27 28 32 30 29 29 30 31 29 31 31 32
25 20 33 40 48 62 66 70 71 73 70 63 59 55 50 44 40 41 39 39 39 36 37 33 30 26 24 24 21 21 24 27 26 25 25 26 26 27 28 27 28 28 28
31 27 35 33 45 48 53 60 63 66 68 65 62 59 54 49 47 43 40 40 36 35 34 32 27 23 21 21 19 18 22 23 24 22 21 21 22 24 25 26 29 30 30
32 33 36 41 44 51 58 61 64 66 64 61 61 60 55 51 46 44 41 39 37 36 36 32 27 23 19 16 17 17 19 20 20 20 21 23 23 24 26 27 29 33 33
47 46 40 44 53 58 57 56 56 52 52 63 58 52 55 51 44 40 39 39 38 35 34 29 26 22 19 15 11 10 12 14 16 17 17 18 19 21 24 29 30 33 35
49 55 54 55 59 62 62 58 46 43 42 41 42 43 44 42 45 45 44 40 37 32 30 27 23 19 15 10 10 11 13 13 14 16 17 19 22 25 27 30 32 34 36
51 55 62 64 63 66 67 67 67 55 49 49 50 44 44 48 46 42 40 37 29 24 21 23 22 21 17 13 10 9 8 9 12 13 16 18 21 23 27 30 33 36 37
53 57 62 67 69 68 69 67 67 69 70 62 53 51 50 46 41 36 32 27 26 25 21 20 18 15 12 10 8 8 10 14 16 18 21 22 23 25 27 30 31 35 38
56 63 69 75 74 72 67 63 62 62 65 63 60 55 50 43 38 33 30 24 21 20 18 16 13 12 10 9 11 15 17 19 21 23 23 27 29 31 31 33 34 35 37
62 65 67 67 68 63 62 65 65 61 58 56 52 46 42 36 32 29 26 22 19 16 14 12 12 11 12 14 17 19 20 21 21 23 24 26 29 30 33 34 36 38 38
69 69 70 70 68 67 66 63 59 55 50 46 41 36 32 27 26 23 20 17 15 14 14 14 16 17 17 17 19 19 19 19 19 19 21 23 25 27 28 31 34 37 40
72 69 65 64 63 63 60 55 47 41 36 30 28 27 24 21 19 16 13 12 12 14 16 16 16 17 16 16 15 15 15 16 18 19 22 24 26 29 30 30 31 33 36
67 66 63 58 56 53 50 40 31 27 27 24 22 21 19 16 13 11 11 13 15 16 16 15 15 15 14 13 14 17 18 20 22 23 25 26 27 28 29 29 30 32 33
53 55 56 54 48 41 35 29 23 21 23 20 16 12 11 10 10 13 15 16 16 16 15 14 15 16 18 19 21 23 25 27 27 28 28 29 29 30 29 30 30 32 34
53 48 41 35 32 29 25 24 23 18 14 13 14 14 15 16 16 17 17 16 16 17 17 18 20 23 25 28 29 30 30 31 31 31 32 31 30 31 30 30 31 30 29
37 36 34 32 27 23 17 14 16 19 18 18 18 18 18 17 17 17 17 18 19 21 23 26 28 31 33 33 34 34 35 34 33 34 34 32 33 32 31 31 30 28 28
Wind_Direction_500mb
279 267 258 250 250 250 239 236 235 240 241 243 241 237 233 229 230 232 233 234 238 240 242 244 247 248 250 251 256 260 262 266 267 272 275 279 283 281 277 268 256 262 259
289 267 255 249 243 240 238 233 231 236 239 242 240 236 233 228 228 229 229 231 234 236 239 242 243 244 245 249 255 258 260 264 270 272 276 278 279 276 275 273 265 267 257
296 270 250 244 237 236 236 231 228 234 234 236 236 234 229 225 225 225 227 230 233 236 238 239 241 244 247 248 252 257 261 267 274 268 270 274 278 275 276 275 275 276 263
295 274 249 240 237 234 231 229 227 230 231 233 233 230 225 223 223 224 225 227 229 231 229 237 244 245 249 250 254 256 262 267 271 266 272 274 275 275 271 273 277 278 268
289 274 250 239 237 232 229 227 225 229 230 232 229 226 223 222 219 221 224 224 225 227 231 239 245 248 251 245 246 254 257 254 261 259 272 271 272 276 280 280 280 273 275
284 275 252 238 236 231 226 224 223 225 224 227 227 225 222 223 219 217 219 219 222 229 233 242 245 237 241 249 255 252 253 260 253 257 270 274 279 275 276 275 273 277 273
281 271 253 240 236 231 227 223 222 223 219 224 224 219 218 218 215 209 210 218 221 232 233 251 231 243 252 252 248 252 254 254 258 273 273 268 266 268 266 269 270 274 277
275 267 244 240 236 229 225 226 222 221 221 218 212 207 210 212 211 211 211 213 223 226 238 225 239 246 250 249 249 254 259 260 256 262 257 262 268 271 273 275 279 281 278
268 262 239 236 233 231 233 227 218 215 212 210 208 205 207 212 209 217 221 217 208 215 226 237 240 241 246 245 240 236 239 243 251 254 255 264 269 276 280 280 285 285 280
261 253 230 230 241 239 233 220 214 204 205 206 203 203 205 204 204 205 217 223 218 222 227 223 217 219 219 226 233 239 242 246 253 262 266 271 274 279 279 279 278 277 280
245 223 229 223 216 225 215 209 204 195 194 191 187 182 187 201 212 212 213 213 211 201 197 201 206 215 220 231 240 243 253 259 264 265 265 271 272 274 275 275 279 277 275
229 204 219 206 198 202 198 193 186 184 182 182 191 185 183 186 192 185 182 183 187 196 197 201 204 209 216 226 235 238 250 261 261 258 258 261 265 270 275 280 279 278 278
200 188 194 182 180 173 183 186 182 184 182 176 178 180 170 173 175 179 181 184 184 193 195 195 190 201 215 220 223 227 235 240 241 243 250 261 265 268 271 273 276 279 282
197 180 176 179 176 174 181 180 178 179 178 175 176 172 166 172 178 179 182 184 185 191 187 182 182 193 200 201 206 211 225 234 242 246 252 259 265 270 276 279 284 289 293
183 171 172 176 175 172 174 174 177 177 182 174 174 173 174 173 173 176 177 173 172 175 169 169 169 174 177 179 194 218 232 242 251 259 263 268 273 277 282 288 291 294 297
190 171 172 176 176 169 167 161 167 171 172 176 174 173 164 164 161 163 161 158 160 159 155 158 163 169 176 195 213 226 235 248 258 266 272 277 281 285 287 288 291 294 295
194 181 172 179 179 172 168 163 156 159 163 164 165 167 160 153 156 150 151 151 146 141 146 148 159 167 170 173 177 198 223 256 276 285 287 289 291 291 293 296 298 299 299
194 183 179 177 177 174 169 164 164 165 162 156 156 150 148 149 147 144 139 138 139 144 151 155 158 162 176 188 210 245 257 263 271 280 285 291 292 291 291 293 294 298 300
195 186 183 179 176 175 168 164 164 161 155 149 148 148 147 148 143 140 142 144 146 154 162 169 179 191 212 234 253 262 265 268 273 278 285 291 294 294 296 295 295 294 294
191 188 183 177 170 164 156 154 153 154 148 144 144 146 146 147 144 148 150 155 165 174 186 200 216 229 241 251 257 262 268 273 280 287 292 294 296 298 299 300 301 300 299
180 178 174 166 160 152 147 148 150 150 147 143 143 144 146 146 148 152 162 175 188 203 214 223 235 243 246 251 256 261 265 274 282 288 293 296 297 298 302 303 303 304 305
164 161 160 155 147 143 144 145 145 139 136 136 145 150 154 157 162 170 178 199 217 231 238 241 244 246 247 248 251 260 269 276 284 291 295 298 300 300 300 301 304 305 307
147 146 142 143 145 141 138 136 137 145 148 153 159 161 161 167 177 193 217 233 241 247 249 252 252 253 256 258 264 270 276 281 285 286 290 292 293 297 300 305 308 309 309
142 148 144 137 131 130 137 144 147 165 178 177 173 179 193 213 232 242 244 243 242 245 247 249 254 260 264 269 271 275 278 282 286 291 292 293 294 297 303 306 307 308 310
130 127 130 140 148 137 137 158 166 167 177 196 210 222 229 236 240 237 234 234 236 239 244 249 257 263 268 271 276 280 284 286 287 287 288 291 295 297 300 301 300 300 303
147 147 137 129 136 148 156 176 200 214 219 226 232 237 239 238 237 238 241 245 250 256 262 264 267 270 272 275 277 279 280 280 281 282 284 287 287 288 290 291 293 295 296
Wind_Speed_850mb
87 94 103 111 114 112 118 117 112 118 118 116 106 96 92 86 84 83 81 83 88 83 81 80 79 76 74 73 72 73 76 74 82 76 73 66 61 61 57 67 68 67 63
87 91 102 105 110 112 114 111 106 114 116 116 106 99 91 83 82 82 79 82 82 80 76 73 69 62 66 65 69 71 71 74 72 73 69 59 53 55 54 65 63 70 74
88 83 96 103 103 107 108 105 105 110 108 111 105 96 84 84 82 83 81 78 78 75 70 67 62 60 62 64 65 67 69 68 68 75 57 55 58 58 56 56 61 68 74
93 79 88 98 102 101 102 100 102 108 104 109 103 90 84 82 80 80 80 75 74 71 63 64 64 63 64 66 63 59 60 59 60 54 53 55 57 61 58 57 59 59 69
88 75 85 90 93 91 94 96 98 105 103 107 96 88 84 83 81 79 75 71 70 67 66 63 62 60 73 58 51 53 55 53 57 53 62 62 58 59 68 66 59 62 61
80 77 75 81 82 89 91 91 93 99 97 98 90 85 83 84 78 75 71 67 64 62 57 66 56 64 53 58 56 60 58 56 51 51 54 61 65 57 61 61 59 54 59
73 72 68 77 80 85 87 87 88 93 92 89 75 68 68 69 67 66 64 60 57 59 63 61 61 53 56 55 53 54 55 51 50 54 60 59 60 60 44 45 43 48 50
70 66 61 71 77 81 81 76 85 88 85 77 73 65 60 60 60 60 64 61 53 60 64 54 47 51 54 49 52 54 55 53 47 45 52 45 42 42 41 41 38 44 48
57 55 53 57 70 69 70 72 78 83 75 75 70 67 71 68 64 58 66 66 62 54 46 52 52 50 47 40 37 36 37 38 36 38 38 37 38 38 40 39 36 38 43
46 37 46 51 41 50 63 80 79 73 71 71 72 65 64 62 59 52 49 52 55 49 48 39 33 32 30 30 31 32 32 30 29 30 32 33 32 31 33 30 29 28 31
28 26 32 41 42 57 61 73 78 76 78 71 65 61 56 47 52 55 51 46 44 41 37 37 32 31 26 26 26 25 25 27 28 32 30 29 29 30 31 29 31 31 32
25 20 33 40 48 62 66 70 71 73 70 63 59 55 50 44 40 41 39 39 39 36 37 33 30 26 24 24 21 21 24 27 26 25 25 26 26 27 28 27 28 28 28
31 27 35 33 45 48 53 60 63 66 68 65 62 59 54 49 47 43 40 40 36 35 34 32 27 23 21 21 19 18 22 23 24 22 21 21 22 24 25 26 29 30 30
32 33 36 41 44 51 58 61 64 66 64 61 61 60 55 51 46 44 41 39 37 36 36 32 27 23 19 16 17 17 19 20 20 20 21 23 23 24 26 27 29 33 33
47 46 40 44 53 58 57 56 56 52 52 63 58 52 55 51 44 40 39 39 38 35 34 29 26 22 19 15 11 10 12 14 16 17 17 18 19 21 24 29 30 33 35
49 55 54 55 59 62 62 58 46 43 42 41 42 43 44 42 45 45 44 40 37 32 30 27 23 19 15 10 10 11 13 13 14 16 17 19 22 25 27 30 32 34 36
51 55 62 64 63 66 67 67 67 55 49 49 50 44 44 48 46 42 40 37 29 24 21 23 22 21 17 13 10 9 8 9 12 13 16 18 21 23 27 30 33 36 37
53 57 62 67 69 68 69 67 67 69 70 62 53 51 50 46 41 36 32 27 26 25 21 20 18 15 12 10 8 8 10 14 16 18 21 22 23 25 27 30 31 35 38
56 63 69 75 74 72 67 63 62 62 65 63 60 55 50 43 38 33 30 24 21 20 18 16 13 12 10 9 11 15 17 19 21 23 23 27 29 31 31 33 34 35 37
62 65 67 67 68 63 62 65 65 61 58 56 52 46 42 36 32 29 26 22 19 16 14 12 12 11 12 14 17 19 20 21 21 23 24 26 29 30 33 34 36 38 38
69 69 70 70 68 67 66 63 59 55 50 46 41 36 32 27 26 23 20 17 15 14 14 14 16 17 17 17 19 19 19 19 19 19 21 23 25 27 28 31 34 37 40
72 69 65 64 63 63 60 55 47 41 36 30 28 27 24 21 19 16 13 12 12 14 16 16 16 17 16 16 15 15 15 16 18 19 22 24 26 29 30 30 31 33 36
67 66 63 58 56 53 50 40 31 27 27 24 22 21 19 16 13 11 11 13 15 16 16 15 15 15 14 13 14 17 18 20 22 23 25 26 27 28 29 29 30 32 33
53 55 56 54 48 41 35 29 23 21 23 20 16 12 11 10 10 13 15 16 16 16 15 14 15 16 18 19 21 23 25 27 27 28 28 29 29 30 29 30 30 32 34
53 48 41 35 32 29 25 24 23 18 14 13 14 14 15 16 16 17 17 16 16 17 17 18 20 23 25 28 29 30 30 31 31 31 32 31 30 31 30 30 31 30 29
37 36 34 32 27 23 17 14 16 19 18 18 18 18 18 17 17 17 17 18 19 21 23 26 28 31 33 33 34 34 35 34 33 34 34 32 33 32 31 31 30 28 28
Wind_Direction_850mb
279 267 258 250 250 250 239 236 235 240 241 243 241 237 233 229 230 232 233 234 238 240 242 244 247 248 250 251 256 260 262 266 267 272 275 279 283 281 277 268 256 262 259
289 267 255 249 243 240 238 233 231 236 239 242 240 236 233 228 228 229 229 231 234 236 239 242 243 244 245 249 255 258 260 264 270 272 276 278 279 276 275 273 265 267 257
296 270 250 244 237 236 236 231 228 234 234 236 236 234 229 225 225 225 227 230 233 236 238 239 241 244 247 248 252 257 261 267 274 268 270 274 278 275 276 275 275 276 263
295 274 249 240 237 234 231 229 227 230 231 233 233 230 225 223 223 224 225 227 229 231 229 237 244 245 249 250 254 256 262 267 271 266 272 274 275 275 271 273 277 278 268
289 274 250 239 237 232 229 227 225 229 230 232 229 226 223 222 219 221 224 224 225 227 231 239 245 248 251 245 246 254 257 254 261 259 272 271 272 276 280 280 280 273 275
284 275 252 238 236 231 226 224 223 225 224 227 227 225 222 223 219 217 219 219 222 229 233 242 245 237 241 249 255 252 253 260 253 257 270 274 279 275 276 275 273 277 273
281 271 253 240 236 231 227 223 222 223 219 224 224 219 218 218 215 209 210 218 221 232 233 251 231 243 252 252 248 252 254 254 258 273 273 268 266 268 266 269 270 274 277
275 267 244 240 236 229 225 226 222 221 221 218 212 207 210 212 211 211 211 213 223 226 238 225 239 246 250 249 249 254 259 260 256 262 257 262 268 271 273 275 279 281 278
268 262 239 236 233 231 233 227 218 215 212 210 208 205 207 212 209 217 221 217 208 215 226 237 240 241 246 245 240 236 239 243 251 254 255 264 269 276 280 280 285 285 280
261 253 230 230 241 239 233 220 214 204 205 206 203 203 205 204 204 205 217 223 218 222 227 223 217 219 219 226 233 239 242 246 253 262 266 271 274 279 279 279 278 277 280
245 223 229 223 216 225 215 209 204 195 194 191 187 182 187 201 212 212 213 213 211 201 197 201 206 215 220 231 240 243 253 259 264 265 265 271 272 274 275 275 279 277 275
229 204 219 206 198 202 198 193 186 184 182 182 191 185 183 186 192 185 182 183 187 196 197 201 204 209 216 226 235 238 250 261 261 258 258 261 265 270 275 280 279 278 278
200 188 194 182 180 173 183 186 182 184 182 176 178 180 170 173 175 179 181 184 184 193 195 195 190 201 215 220 223 227 235 240 241 243 250 261 265 268 271 273 276 279 282
197 180 176 179 176 174 181 180 178 179 178 175 176 172 166 172 178 179 182 184 185 191 187 182 182 193 200 201 206 211 225 234 242 246 252 259 265 270 276 279 284 289 293
183 171 172 176 175 172 174 174 177 177 182 174 174 173 174 173 173 176 177 173 172 175 169 169 169 174 177 179 194 218 232 242 251 259 263 268 273 277 282 288 291 294 297
190 171 172 176 176 169 167 161 167 171 172 176 174 173 164 164 161 163 161 158 160 159 155 158 163 169 176 195 213 226 235 248 258 266 272 277 281 285 287 288 291 294 295
194 181 172 179 179 172 168 163 156 159 163 164 165 167 160 153 156 150 151 151 146 141 146 148 159 167 170 173 177 198 223 256 276 285 287 289 291 291 293 296 298 299 299
194 183 179 177 177 174 169 164 164 165 162 156 156 150 148 149 147 144 139 138 139 144 151 155 158 162 176 188 210 245 257 263 271 280 285 291 292 291 291 293 294 298 300
195 186 183 179 176 175 168 164 164 161 155 149 148 148 147 148 143 140 142 144 146 154 162 169 179 191 212 234 253 262 265 268 273 278 285 291 294 294 296 295 295 294 294
191 188 183 177 170 164 156 154 153 154 148 144 144 146 146 147 144 148 150 155 165 174 186 200 216 229 241 251 257 262 268 273 280 287 292 294 296 298 299 300 301 300 299
180 178 174 166 160 152 147 148 150 150 147 143 143 144 146 146 148 152 162 175 188 203 214 223 235 243 246 251 256 261 265 274 282 288 293 296 297 298 302 303 303 304 305
164 161 160 155 147 143 144 145 145 139 136 136 145 150 154 157 162 170 178 199 217 231 238 241 244 246 247 248 251 260 269 276 284 291 295 298 300 300 300 301 304 305 307
147 146 142 143 145 141 138 136 137 145 148 153 159 161 161 167 177 193 217 233 241 247 249 252 252 253 256 258 264 270 276 281 285 286 290 292 293 297 300 305 308 309 309
142 148 144 137 131 130 137 144 147 165 178 177 173 179 193 213 232 242 244 243 242 245 247 249 254 260 264 269 271 275 278 282 286 291 292 293 294 297 303 306 307 308 310
130 127 130 140 148 137 137 158 166 167 177 196 210 222 229 236 240 237 234 234 236 239 244 249 257 263 268 271 276 280 284 286 287 287 288 291 295 297 300 301 300 300 303
147 147 137 129 136 148 156 176 200 214 219 226 232 237 239 238 237 238 241 245 250 256 262 264 267 270 272 275 277 279 280 280 281 282 284 287 287 288 290 291 293 295 296